Weather History for Pascagoula, MS

Change the Weather History Date:

Saturday, December 8, 2012

  Actual Average Record
Temperature  
Mean Temperature 65 °F -  
Max Temperature 73 °F 64 °F 78 °F (1978)
Min Temperature 54 °F 45 °F 24 °F (1973)
Growing Degree Days 15 (Base 50)    
Moisture  
Dew Point 63 °F    
Average Humidity 91    
Maximum Humidity 100    
Minimum Humidity 66    
Precipitation  
Precipitation 0.03 in - - ()
Sea Level Pressure  
Sea Level Pressure 29.97 in    
Wind  
Wind Speed 2 mph (South)    
Max Wind Speed 7 mph    
Max Gust Speed -    
Visibility 5 miles    
Events Fog , Rain    
Averages and records for this station are not official NWS values.
T = Trace of Precipitation, MM = Missing Value Source: NWS Daily Summary

Daily Weather History Graph

Daily Weather History Graph

Search for Another Location

Airport:

Trip Planner

Search our weather history database for the weather conditions in past years. The results will help you decide how hot, cold, wet, or windy it might be!

Date:

Astronomy

Dec. 08, 2012 Rise Set
Actual Time 6:39 AM CST 4:53 PM CST
Civil Twilight 6:12 AM CST 5:19 PM CST
Nautical Twilight 5:42 AM CST 5:49 PM CST
Astronomical Twilight 5:13 AM CST 6:18 PM CST
Moon 1:21 AM CST (12/8) 1:07 PM CST (12/8)
Length of Visible Light 11h 07m
Length of Day
10h 14m
Waning Crescent, 28% of the Moon is Illuminated
Dec 8
Waning Crescent
Dec 13
New
Dec 19
First Quarter
Dec 28
Full
Jan 4
Last Quarter

Hourly Weather History & Observations

Time (CST) Temp. Dew Point Humidity Pressure Visibility Wind Dir Wind Speed Gust Speed Precip Events Conditions
12:29 AM 66.2 °F 64.4 °F 94% 29.94 in 7.0 mi Calm Calm - N/A   Overcast
12:50 AM 66.2 °F 64.4 °F 94% 29.93 in 6.0 mi East 3.5 mph - 0.00 in Rain Light Rain
12:53 AM 66.9 °F 64.9 °F 93% 29.94 in 6.0 mi East 3.5 mph - 0.00 in Rain Light Rain
1:03 AM 66.2 °F 64.4 °F 94% 29.93 in 8.0 mi ESE 4.6 mph - 0.00 in   Overcast
1:40 AM 68.0 °F 66.2 °F 94% 29.92 in 5.0 mi ESE 5.8 mph - 0.01 in Rain Rain
1:53 AM 68.0 °F 66.0 °F 93% 29.93 in 4.0 mi SE 4.6 mph - 0.02 in Rain Rain
2:23 AM 68.0 °F 66.2 °F 94% 29.92 in 9.0 mi SE 6.9 mph - 0.01 in   Overcast
2:35 AM 68.0 °F 66.2 °F 94% 29.92 in 8.0 mi SSE 3.5 mph - 0.01 in   Overcast
2:53 AM 66.0 °F 64.9 °F 96% 29.93 in 7.0 mi SE 3.5 mph - 0.01 in   Mostly Cloudy
3:26 AM 66.2 °F 64.4 °F 94% 29.92 in 5.0 mi SSE 3.5 mph - N/A   Mostly Cloudy
3:31 AM 64.4 °F 64.4 °F 100% 29.93 in 1.8 mi Calm Calm - N/A   Mostly Cloudy
3:43 AM 66.2 °F 64.4 °F 94% 29.93 in 3.0 mi Calm Calm - N/A   Overcast
3:53 AM 66.0 °F 64.9 °F 96% 29.94 in 5.0 mi Calm Calm - N/A   Overcast
4:11 AM 66.2 °F 64.4 °F 94% 29.93 in 1.5 mi Calm Calm - N/A   Overcast
4:45 AM 64.4 °F 62.6 °F 94% 29.93 in 0.5 mi Calm Calm - N/A Fog Fog
5:02 AM 62.6 °F 62.6 °F 100% 29.94 in 0.2 mi Calm Calm - N/A Fog Fog
5:53 AM 62.1 °F 62.1 °F 100% 29.96 in 0.2 mi Calm Calm - N/A Fog Fog
6:13 AM 62.6 °F 62.6 °F 100% 29.96 in 0.5 mi Calm Calm - N/A Fog Fog
6:35 AM 64.4 °F 64.4 °F 100% 29.97 in 1.2 mi Calm Calm - N/A   Overcast
6:53 AM 64.9 °F 64.0 °F 97% 29.98 in 1.5 mi Calm Calm - N/A   Overcast
7:03 AM 64.4 °F 64.4 °F 100% 29.98 in 3.0 mi Calm Calm - N/A   Overcast
7:22 AM 66.2 °F 64.4 °F 94% 29.98 in 3.0 mi Calm Calm - N/A   Overcast
7:31 AM 66.2 °F 64.4 °F 94% 29.99 in 1.8 mi Calm Calm - N/A   Overcast
7:41 AM 66.2 °F 64.4 °F 94% 29.99 in 3.0 mi Calm Calm - N/A   Overcast
7:48 AM 66.2 °F 64.4 °F 94% 29.99 in 1.5 mi SW 3.5 mph - N/A   Overcast
7:53 AM 66.0 °F 64.0 °F 93% 30.00 in 0.5 mi SW 4.6 mph - N/A Fog Fog
8:19 AM 66.2 °F 64.4 °F 94% 30.00 in 1.5 mi South 4.6 mph - N/A   Overcast
8:45 AM 66.2 °F 64.4 °F 94% 30.00 in 2.0 mi South 4.6 mph - N/A   Overcast
8:53 AM 66.0 °F 64.9 °F 96% 30.00 in 4.0 mi South 3.5 mph - N/A   Overcast
9:28 AM 66.2 °F 64.4 °F 94% 30.01 in 10.0 mi South 3.5 mph - N/A   Overcast
9:53 AM 68.0 °F 64.9 °F 90% 30.01 in 10.0 mi South 3.5 mph - N/A   Overcast
10:05 AM 68.0 °F 64.4 °F 88% 30.01 in 10.0 mi SSE 3.5 mph - N/A   Mostly Cloudy
10:25 AM 71.6 °F 64.4 °F 78% 30.00 in 10.0 mi Calm Calm - N/A   Scattered Clouds
10:53 AM 72.0 °F 64.0 °F 76% 29.99 in 10.0 mi Calm Calm - N/A   Partly Cloudy
11:53 AM 73.9 °F 62.1 °F 66% 29.97 in 10.0 mi SSW 6.9 mph - N/A   Partly Cloudy
12:53 PM 73.9 °F 62.1 °F 66% 29.95 in 10.0 mi SSW 6.9 mph - N/A   Clear
1:53 PM 72.0 °F 60.1 °F 66% 29.94 in 10.0 mi South 5.8 mph - N/A   Clear
2:53 PM 71.1 °F 60.1 °F 68% 29.94 in 10.0 mi South 5.8 mph - N/A   Clear
3:53 PM 70.0 °F 60.1 °F 71% 29.94 in 10.0 mi South 5.8 mph - N/A   Clear
4:53 PM 64.9 °F 61.0 °F 87% 29.96 in 10.0 mi South 6.9 mph - N/A   Clear
5:12 PM 62.6 °F 60.8 °F 94% 29.96 in 9.0 mi South 3.5 mph - N/A   Scattered Clouds
5:20 PM 62.6 °F 60.8 °F 94% 29.97 in 7.0 mi SSW 5.8 mph - N/A   Mostly Cloudy
5:53 PM 63.0 °F 61.0 °F 93% 29.98 in 6.0 mi Calm Calm - N/A   Overcast
6:53 PM 63.0 °F 61.0 °F 93% 30.00 in 5.0 mi South 3.5 mph - N/A   Overcast
7:35 PM 62.6 °F 60.8 °F 94% 30.01 in 1.5 mi SSW 3.5 mph - N/A   Overcast
7:44 PM 62.6 °F 60.8 °F 94% 30.01 in 0.5 mi Calm Calm - N/A Fog Fog
7:53 PM 62.1 °F 61.0 °F 96% 30.01 in 0.2 mi Calm Calm - N/A Fog Fog
8:29 PM 62.6 °F 60.8 °F 94% 30.01 in 0.2 mi Calm Calm - N/A Fog Fog
8:53 PM 62.1 °F 61.0 °F 96% 30.02 in 0.2 mi Calm Calm - N/A Fog Fog
9:53 PM 61.0 °F 60.1 °F 97% 30.01 in 0.2 mi Calm Calm - N/A Fog Fog
10:53 PM 57.9 °F 57.0 °F 97% 30.01 in 0.2 mi Calm Calm - N/A Fog Fog
11:53 PM 54.0 °F 53.1 °F 97% 30.01 in 0.2 mi Calm Calm - N/A Fog Fog